Location: Bluff Heights
(33.7692°N, 118.1592°W)
Time: 00:07:23
(UTC+00:00)

deb Explorer IX - All Passes

Search period start: 29 July 2021 00:00
Search period end: 08 August 2021 00:00
Orbit: 543 x 1095 km, 38.8° (Epoch: 27 July)

Date Brightness Start Highest point End Pass type
(mag) Time Alt. Az. Time Alt. Az. Time Alt. Az.
29 Jul - 01:42:08 10° WNW 01:48:32 69° NNE 01:55:41 10° E daylight
29 Jul - 03:29:13 10° WNW 03:35:56 58° SSW 03:43:03 10° SE visible
29 Jul - 05:18:05 10° W 05:22:38 18° SW 05:27:12 10° S visible
29 Jul - 19:58:49 10° SSW 20:02:44 26° SE 20:07:09 10° E daylight
29 Jul - 21:44:04 10° WSW 21:49:10 88° NNW 21:55:14 10° ENE daylight
29 Jul - 23:31:02 10° W 23:36:36 54° N 23:43:04 10° ENE daylight
30 Jul - 01:18:06 10° WNW 01:24:20 68° NNE 01:31:23 10° E daylight
30 Jul - 03:05:07 10° WNW 03:11:42 58° SSW 03:18:48 10° SE daylight
30 Jul - 04:53:55 10° W 04:58:25 18° SW 05:02:59 10° S visible
30 Jul - 19:34:56 10° SSW 19:38:41 25° SE 19:42:54 10° E daylight
30 Jul - 21:20:08 10° WSW 21:25:05 88° NNW 21:30:58 10° ENE daylight
30 Jul - 23:07:05 10° W 23:12:28 53° N 23:18:46 10° ENE daylight
31 Jul - 00:54:04 10° WNW 01:00:08 68° NNE 01:07:04 10° E daylight
31 Jul - 02:41:02 10° WNW 02:47:28 57° SSW 02:54:30 10° SE daylight
31 Jul - 04:29:46 10° W 04:34:12 18° SW 04:38:44 10° S visible
31 Jul - 19:11:03 10° SSW 19:14:39 24° SE 19:18:39 10° E daylight
31 Jul - 20:56:13 10° WSW 21:01:00 88° NNW 21:06:41 10° ENE daylight
31 Jul - 22:43:07 10° W 22:48:20 52° N 22:54:27 10° ENE daylight
01 Aug - 00:30:03 10° WNW 00:35:56 67° NNE 00:42:45 10° E daylight
01 Aug - 02:16:57 10° WNW 02:23:14 57° SSW 02:30:12 10° SE daylight
01 Aug - 04:05:38 10° W 04:09:59 18° SW 04:14:28 10° S visible
01 Aug - 18:47:09 10° SSW 18:50:36 23° SE 18:54:25 10° E daylight
01 Aug - 20:32:16 10° WSW 20:36:56 88° NNW 20:42:25 10° ENE daylight
01 Aug - 22:19:10 10° W 22:24:12 51° N 22:30:08 10° ENE daylight
02 Aug - 00:06:03 10° WNW 00:11:45 66° NNE 00:18:24 10° E daylight
02 Aug - 01:52:53 10° WNW 01:59:01 57° SSW 02:05:53 10° SE daylight
02 Aug - 03:41:31 10° W 03:45:45 17° SW 03:50:09 10° S visible
02 Aug - 18:23:14 10° SSW 18:26:34 22° SE 18:30:12 10° E daylight
02 Aug - 20:08:20 10° WSW 20:12:52 88° NNW 20:18:09 10° ENE daylight
02 Aug - 21:55:13 10° WNW 22:00:05 50° N 22:05:48 10° ENE daylight
02 Aug - 23:42:03 10° WNW 23:47:35 66° NNE 23:54:03 10° E daylight
03 Aug - 01:28:49 10° WNW 01:34:46 56° SSW 01:41:32 10° SE daylight
03 Aug - 03:17:25 10° WSW 03:21:31 17° SW 03:25:48 10° S visible
03 Aug - 17:59:17 10° SSW 18:02:31 22° SE 18:06:00 10° E daylight
03 Aug - 19:44:24 10° WSW 19:48:48 88° NNW 19:53:54 10° ENE daylight
03 Aug - 21:31:16 10° WNW 21:35:59 49° N 21:41:29 10° ENE daylight
03 Aug - 23:18:03 10° WNW 23:23:24 65° NNE 23:29:42 10° E daylight
04 Aug - 01:04:46 10° WNW 01:10:34 55° SSW 01:17:11 10° SE daylight
04 Aug - 02:53:21 10° WSW 02:57:17 17° SW 03:01:26 10° S daylight
04 Aug - 17:35:20 10° SSW 17:38:29 21° SE 17:41:49 10° E daylight
04 Aug - 19:20:26 10° WSW 19:24:44 88° NNW 19:29:40 10° ENE daylight
04 Aug - 21:07:18 10° WNW 21:11:52 48° N 21:17:10 10° ENE daylight
04 Aug - 22:54:04 10° WNW 22:59:14 64° NNE 23:05:21 10° E daylight
05 Aug - 00:40:44 10° WNW 00:46:21 55° SSW 00:52:49 10° SE daylight
05 Aug - 02:29:17 10° WSW 02:33:03 16° SW 02:37:03 10° S daylight
05 Aug - 17:11:21 10° SSW 17:14:26 20° SE 17:17:39 10° E daylight
05 Aug - 18:56:28 10° WSW 19:00:41 88° NNW 19:05:26 10° ENE daylight
05 Aug - 20:43:20 10° WNW 20:47:46 47° N 20:52:53 10° ENE daylight
05 Aug - 22:30:04 10° WNW 22:35:05 63° NNE 22:41:00 10° E daylight
06 Aug - 00:16:42 10° WNW 00:22:08 54° SSW 00:28:27 10° SE daylight
06 Aug - 02:05:16 10° WSW 02:08:50 16° SW 02:12:37 10° S daylight
06 Aug - 16:47:21 10° SSW 16:50:22 20° SE 16:53:30 10° E daylight
06 Aug - 18:32:28 10° WSW 18:36:37 88° NNW 18:41:14 10° ENE daylight
06 Aug - 20:19:22 10° WNW 20:23:40 46° N 20:28:35 10° ENE daylight
06 Aug - 22:06:05 10° WNW 22:10:56 62° NNE 22:16:39 10° E daylight
06 Aug - 23:52:41 10° WNW 23:57:56 53° SSW 00:04:04 10° SE daylight
07 Aug - 01:41:15 10° WSW 01:44:36 15° SW 01:48:11 10° S daylight
07 Aug - 16:23:18 10° SSW 16:26:18 20° SE 16:29:22 10° E daylight
07 Aug - 18:08:27 10° WSW 18:12:34 88° NNW 18:17:03 10° ENE daylight
07 Aug - 19:55:23 10° WNW 19:59:34 45° N 20:04:19 10° ENE daylight
07 Aug - 21:42:05 10° WNW 21:46:48 61° NNE 21:52:19 10° E daylight
07 Aug - 23:28:39 10° WNW 23:33:44 52° SSW 23:39:41 10° SE daylight
